Location: Jefferson
(30.9666°N, 81.7901°W)
Time: 20:06:50
(UTC+00:00)

ARIANE 6 FM1 Upper Stage - Pass Details

Date: 22 September 2024
Orbit: 563 x 595 km, 62.0° (Epoch: 13 October)

Event Time Altitude Azimuth Distance (km) Brightness Sun altitude
Exits shadow 10:51:02 - 300° (WNW) 2,575 5.5 -6.1°
Reaches altitude 10° 10:53:27 10° 280° (W) 1,927 4.8 -5.6°
Maximum altitude 10:55:41 14° 249° (WSW) 1,684 4.5 -5.1°
Drops below altitude 10° 10:57:55 10° 218° (SW) 1,920 5.0 -4.7°
Sets 11:01:08 0° 192° (SSW) 2,813 6.1 -4.0°
